Time,TemperatureF,DewpointF,PressureIn,WindDirection,WindDirectionDegrees,WindSpeedMPH,WindSpeedGustMPH,Humidity,HourlyPrecipIn,Conditions,Clouds,dailyrainin,SoftwareType,DateUTC
2013-04-21 00:00:00,44.0,-99.9,-100.00,WSW,257,5.0,13.0,-999,-99.99,,,-99.99,,2013-04-21 06:00:00,
2013-04-21 00:52:00,44.0,-99.9,-100.00,WSW,257,5.0,13.0,-999,-99.99,,,-99.99,,2013-04-21 06:52:00,
2013-04-21 01:00:00,44.0,-99.9,-100.00,WNW,288,8.0,23.0,-999,-99.99,,,-99.99,,2013-04-21 07:00:00,
2013-04-21 01:52:00,44.0,-99.9,-100.00,WNW,288,8.0,23.0,-999,-99.99,,,-99.99,,2013-04-21 07:52:00,
2013-04-21 02:00:00,44.0,-99.9,-100.00,SE,136,2.0,6.0,-999,-99.99,,,-99.99,,2013-04-21 08:00:00,
2013-04-21 02:52:00,44.0,-99.9,-100.00,SE,136,2.0,6.0,-999,-99.99,,,-99.99,,2013-04-21 08:52:00,
2013-04-21 03:00:00,44.0,-99.9,-100.00,East,99,2.0,3.0,-999,-99.99,,,-99.99,,2013-04-21 09:00:00,
2013-04-21 03:53:00,44.0,-99.9,-100.00,East,99,2.0,3.0,-999,-99.99,,,-99.99,,2013-04-21 09:53:00,
2013-04-21 04:00:00,42.0,-99.9,-100.00,East,95,6.0,6.0,-999,-99.99,,,-99.99,,2013-04-21 10:00:00,
2013-04-21 04:52:00,42.0,-99.9,-100.00,East,95,6.0,6.0,-999,-99.99,,,-99.99,,2013-04-21 10:52:00,
2013-04-21 05:00:00,41.0,-99.9,-100.00,NNW,333,3.0,4.0,-999,-99.99,,,-99.99,,2013-04-21 11:00:00,
2013-04-21 05:52:00,41.0,-99.9,-100.00,NNW,333,3.0,4.0,-999,-99.99,,,-99.99,,2013-04-21 11:52:00,
2013-04-21 06:00:00,39.0,-99.9,-100.00,WNW,282,6.0,9.0,-999,-99.99,,,-99.99,,2013-04-21 12:00:00,
2013-04-21 06:52:00,39.0,-99.9,-100.00,WNW,282,6.0,9.0,-999,-99.99,,,-99.99,,2013-04-21 12:52:00,
2013-04-21 07:00:00,41.0,-99.9,-100.00,West,277,10.0,13.0,-999,-99.99,,,-99.99,,2013-04-21 13:00:00,
2013-04-21 07:52:00,41.0,-99.9,-100.00,West,277,10.0,13.0,-999,-99.99,,,-99.99,,2013-04-21 13:52:00,
2013-04-21 08:00:00,48.0,-99.9,-100.00,WNW,298,15.0,20.0,-999,-99.99,,,-99.99,,2013-04-21 14:00:00,
2013-04-21 08:52:00,48.0,-99.9,-100.00,WNW,298,15.0,20.0,-999,-99.99,,,-99.99,,2013-04-21 14:52:00,
2013-04-21 09:00:00,53.0,-99.9,-100.00,NW,324,17.0,21.0,-999,-99.99,,,-99.99,,2013-04-21 15:00:00,
2013-04-21 09:53:00,53.0,-99.9,-100.00,NW,324,17.0,21.0,-999,-99.99,,,-99.99,,2013-04-21 15:53:00,
2013-04-21 10:00:00,59.0,-99.9,-100.00,North,0,15.0,22.0,-999,-99.99,,,-99.99,,2013-04-21 16:00:00,
2013-04-21 10:53:00,59.0,-99.9,-100.00,North,0,15.0,22.0,-999,-99.99,,,-99.99,,2013-04-21 16:53:00,
2013-04-21 11:00:00,60.0,-99.9,-100.00,NNW,341,13.0,15.0,-999,-99.99,,,-99.99,,2013-04-21 17:00:00,
2013-04-21 11:53:00,60.0,-99.9,-100.00,NNW,341,13.0,15.0,-999,-99.99,,,-99.99,,2013-04-21 17:53:00,
2013-04-21 12:00:00,62.0,-99.9,-100.00,North,359,11.0,15.0,-999,-99.99,,,-99.99,,2013-04-21 18:00:00,
2013-04-21 12:52:00,62.0,-99.9,-100.00,North,359,11.0,15.0,-999,-99.99,,,-99.99,,2013-04-21 18:52:00,
2013-04-21 13:00:00,64.0,-99.9,-100.00,WNW,301,7.0,12.0,-999,-99.99,,,-99.99,,2013-04-21 19:00:00,
2013-04-21 13:52:00,64.0,-99.9,-100.00,WNW,301,7.0,12.0,-999,-99.99,,,-99.99,,2013-04-21 19:52:00,
2013-04-21 14:00:00,64.0,-99.9,-100.00,NE,48,3.0,11.0,-999,-99.99,,,-99.99,,2013-04-21 20:00:00,
2013-04-21 14:52:00,64.0,-99.9,-100.00,NE,48,3.0,11.0,-999,-99.99,,,-99.99,,2013-04-21 20:52:00,
2013-04-21 15:00:00,66.0,-99.9,-100.00,North,352,2.0,5.0,-999,-99.99,,,-99.99,,2013-04-21 21:00:00,
2013-04-21 15:53:00,66.0,-99.9,-100.00,North,352,2.0,5.0,-999,-99.99,,,-99.99,,2013-04-21 21:53:00,
2013-04-21 16:00:00,64.0,-99.9,-100.00,NNE,25,14.0,22.0,-999,-99.99,,,-99.99,,2013-04-21 22:00:00,
2013-04-21 16:53:00,64.0,-99.9,-100.00,NNE,25,14.0,22.0,-999,-99.99,,,-99.99,,2013-04-21 22:53:00,
2013-04-21 17:00:00,60.0,-99.9,-100.00,NE,50,15.0,17.0,-999,-99.99,,,-99.99,,2013-04-21 23:00:00,
2013-04-21 17:52:00,60.0,-99.9,-100.00,NE,50,15.0,17.0,-999,-99.99,,,-99.99,,2013-04-21 23:52:00,
2013-04-21 18:00:00,57.0,-99.9,-100.00,ENE,78,15.0,19.0,-999,-99.99,,,-99.99,,2013-04-22 00:00:00,
2013-04-21 18:52:00,57.0,-99.9,-100.00,ENE,78,15.0,19.0,-999,-99.99,,,-99.99,,2013-04-22 00:52:00,
2013-04-21 19:00:00,55.0,-99.9,-100.00,ENE,69,15.0,19.0,-999,-99.99,,,-99.99,,2013-04-22 01:00:00,
2013-04-21 19:52:00,55.0,-99.9,-100.00,ENE,69,15.0,19.0,-999,-99.99,,,-99.99,,2013-04-22 01:52:00,
2013-04-21 20:00:00,51.0,-99.9,-100.00,East,101,17.0,17.0,-999,-99.99,,,-99.99,,2013-04-22 02:00:00,
2013-04-21 20:52:00,51.0,-99.9,-100.00,East,101,17.0,17.0,-999,-99.99,,,-99.99,,2013-04-22 02:52:00,
2013-04-21 21:00:00,50.0,-99.9,-100.00,ESE,115,9.0,11.0,-999,-99.99,,,-99.99,,2013-04-22 03:00:00,
2013-04-21 21:53:00,50.0,-99.9,-100.00,ESE,115,9.0,11.0,-999,-99.99,,,-99.99,,2013-04-22 03:53:00,
2013-04-21 22:00:00,48.0,-99.9,-100.00,ESE,122,11.0,17.0,-999,-99.99,,,-99.99,,2013-04-22 04:00:00,
2013-04-21 22:53:00,48.0,-99.9,-100.00,ESE,122,11.0,17.0,-999,-99.99,,,-99.99,,2013-04-22 04:53:00,
2013-04-21 23:00:00,46.0,-99.9,-100.00,SSE,147,11.0,14.0,-999,-99.99,,,-99.99,,2013-04-22 05:00:00,
2013-04-21 23:52:00,46.0,-99.9,-100.00,SSE,147,11.0,14.0,-999,-99.99,,,-99.99,,2013-04-22 05:52:00,